Year,Month,Day,Hour,Minute,Value (Times are PST for temperature in C)
2015,05,19,00,00,15.40
2015,05,19,00,01,15.30
2015,05,19,00,02,15.30
2015,05,19,00,03,15.30
2015,05,19,00,04,15.30
2015,05,19,00,05,15.30
2015,05,19,00,06,15.20
2015,05,19,00,07,15.20
2015,05,19,00,08,15.20
2015,05,19,00,09,15.10
2015,05,19,00,10,15.10
2015,05,19,00,11,15.00
2015,05,19,00,12,15.00
2015,05,19,00,13,15.00
2015,05,19,00,14,15.00
2015,05,19,00,15,15.00
2015,05,19,00,16,15.00
2015,05,19,00,17,15.00
2015,05,19,00,18,15.00
2015,05,19,00,19,15.00
2015,05,19,00,20,15.00
2015,05,19,00,21,15.00
2015,05,19,00,22,15.00
2015,05,19,00,23,15.00
2015,05,19,00,24,15.00
2015,05,19,00,25,15.00
2015,05,19,00,26,15.00
2015,05,19,00,27,15.00
2015,05,19,00,28,15.00
2015,05,19,00,29,14.90
2015,05,19,00,30,14.90
2015,05,19,00,31,14.90
2015,05,19,00,32,14.90
2015,05,19,00,33,14.90
2015,05,19,00,34,14.90
2015,05,19,00,35,14.80
2015,05,19,00,36,14.80
2015,05,19,00,37,14.80
2015,05,19,00,38,14.70
2015,05,19,00,39,14.70
2015,05,19,00,40,14.70
2015,05,19,00,41,14.70
2015,05,19,00,42,14.70
2015,05,19,00,43,14.60
2015,05,19,00,44,14.60
2015,05,19,00,45,14.60
2015,05,19,00,46,14.60
2015,05,19,00,47,14.60
2015,05,19,00,48,14.50
2015,05,19,00,49,14.50
2015,05,19,00,50,14.50
2015,05,19,00,51,14.40
2015,05,19,00,52,14.40
2015,05,19,00,53,14.40
2015,05,19,00,54,14.40
2015,05,19,00,55,14.40
2015,05,19,00,56,14.30
2015,05,19,00,57,14.30
2015,05,19,00,58,14.30
2015,05,19,00,59,14.30
2015,05,19,01,00,14.30
2015,05,19,01,01,14.30
2015,05,19,01,02,14.30
2015,05,19,01,03,14.30
2015,05,19,01,04,14.30
2015,05,19,01,05,14.30
2015,05,19,01,06,14.20
2015,05,19,01,07,14.20
2015,05,19,01,08,14.20
2015,05,19,01,09,14.20
2015,05,19,01,10,14.20
2015,05,19,01,11,14.20
2015,05,19,01,12,14.20
2015,05,19,01,13,14.20
2015,05,19,01,14,14.20
2015,05,19,01,15,14.20
2015,05,19,01,16,14.20
2015,05,19,01,17,14.10
2015,05,19,01,18,14.10
2015,05,19,01,19,14.10
2015,05,19,01,20,14.10
2015,05,19,01,21,14.10
2015,05,19,01,22,14.10
2015,05,19,01,23,14.10
2015,05,19,01,24,14.10
2015,05,19,01,25,14.10
2015,05,19,01,26,14.10
2015,05,19,01,27,14.10
2015,05,19,01,28,14.10
2015,05,19,01,29,14.10
2015,05,19,01,30,14.10
2015,05,19,01,31,14.10
2015,05,19,01,32,14.10
2015,05,19,01,33,14.10
2015,05,19,01,34,14.00
2015,05,19,01,35,14.00
2015,05,19,01,36,14.00
2015,05,19,01,37,14.00
2015,05,19,01,38,14.00
2015,05,19,01,39,13.90
2015,05,19,01,40,13.90
2015,05,19,01,41,13.90
2015,05,19,01,42,13.90
2015,05,19,01,43,13.90
2015,05,19,01,44,13.90
2015,05,19,01,45,13.80
2015,05,19,01,46,13.80
2015,05,19,01,47,13.80
2015,05,19,01,48,13.80
2015,05,19,01,49,13.80
2015,05,19,01,50,13.80
2015,05,19,01,51,13.80
2015,05,19,01,52,13.80
2015,05,19,01,53,13.80
2015,05,19,01,54,13.80
2015,05,19,01,55,13.80
2015,05,19,01,56,13.80
2015,05,19,01,57,13.80
2015,05,19,01,58,13.80
2015,05,19,01,59,13.80
2015,05,19,02,00,13.70
2015,05,19,02,01,13.70
2015,05,19,02,02,13.70
2015,05,19,02,03,13.70
2015,05,19,02,04,13.60
2015,05,19,02,05,13.60
2015,05,19,02,06,13.50
2015,05,19,02,07,13.50
2015,05,19,02,08,13.50
2015,05,19,02,09,13.50
2015,05,19,02,10,13.40
2015,05,19,02,11,13.40
2015,05,19,02,12,13.40
2015,05,19,02,13,13.40
2015,05,19,02,14,13.40
2015,05,19,02,15,13.40
2015,05,19,02,16,13.40
2015,05,19,02,17,13.40
2015,05,19,02,18,13.40
2015,05,19,02,19,13.40
2015,05,19,02,20,13.40
2015,05,19,02,21,13.40
2015,05,19,02,22,13.40
2015,05,19,02,23,13.40
2015,05,19,02,24,13.40
2015,05,19,02,25,13.40
2015,05,19,02,26,13.40
2015,05,19,02,27,13.40
2015,05,19,02,28,13.40
2015,05,19,02,29,13.40
2015,05,19,02,30,13.40
2015,05,19,02,31,13.40
2015,05,19,02,32,13.30
2015,05,19,02,33,13.30
2015,05,19,02,34,13.30
2015,05,19,02,35,13.30
2015,05,19,02,36,13.30
2015,05,19,02,37,13.30
2015,05,19,02,38,13.30
2015,05,19,02,39,13.30
2015,05,19,02,40,13.20
2015,05,19,02,41,13.20
2015,05,19,02,42,13.20
2015,05,19,02,43,13.20
2015,05,19,02,44,13.20
2015,05,19,02,45,13.20
2015,05,19,02,46,13.20
2015,05,19,02,47,13.20
2015,05,19,02,48,13.20
2015,05,19,02,49,13.20
2015,05,19,02,50,13.10
2015,05,19,02,51,13.10
2015,05,19,02,52,13.10
2015,05,19,02,53,13.10
2015,05,19,02,54,13.10
2015,05,19,02,55,13.10
2015,05,19,02,56,13.10
2015,05,19,02,57,13.10
2015,05,19,02,58,13.10
2015,05,19,02,59,13.10
2015,05,19,03,00,13.00
2015,05,19,03,01,13.00
2015,05,19,03,02,13.00
2015,05,19,03,03,12.90
2015,05,19,03,04,12.90
2015,05,19,03,05,12.90
2015,05,19,03,06,12.90
2015,05,19,03,07,12.90
2015,05,19,03,08,12.90
2015,05,19,03,09,12.90
2015,05,19,03,10,12.90
2015,05,19,03,11,12.90
2015,05,19,03,12,12.90
2015,05,19,03,13,12.90
2015,05,19,03,14,12.90
2015,05,19,03,15,12.90
2015,05,19,03,16,12.90
2015,05,19,03,17,12.90
2015,05,19,03,18,12.90
2015,05,19,03,19,12.90
2015,05,19,03,20,12.90
2015,05,19,03,21,12.90
2015,05,19,03,22,12.90
2015,05,19,03,23,12.90
2015,05,19,03,24,12.90
2015,05,19,03,25,12.90
2015,05,19,03,26,12.90
2015,05,19,03,27,12.90
2015,05,19,03,28,12.90
2015,05,19,03,29,12.90
2015,05,19,03,30,12.90
2015,05,19,03,31,12.90
2015,05,19,03,32,12.80
2015,05,19,03,33,12.80
2015,05,19,03,34,12.80
2015,05,19,03,35,12.80
2015,05,19,03,36,12.80
2015,05,19,03,37,12.70
2015,05,19,03,38,12.70
2015,05,19,03,39,12.70
2015,05,19,03,40,12.70
2015,05,19,03,41,12.70
2015,05,19,03,42,12.70
2015,05,19,03,43,12.70
2015,05,19,03,44,12.70
2015,05,19,03,45,12.70
2015,05,19,03,46,12.70
2015,05,19,03,47,12.70
2015,05,19,03,48,12.60
2015,05,19,03,49,12.60
2015,05,19,03,50,12.60
2015,05,19,03,51,12.60
2015,05,19,03,52,12.60
2015,05,19,03,53,12.70
2015,05,19,03,54,12.60
2015,05,19,03,55,12.60
2015,05,19,03,56,12.60
2015,05,19,03,57,12.60
2015,05,19,03,58,12.60
2015,05,19,03,59,12.60
2015,05,19,04,00,12.60
2015,05,19,04,01,12.60
2015,05,19,04,02,12.60
2015,05,19,04,03,12.60
2015,05,19,04,04,12.50
2015,05,19,04,05,12.50
2015,05,19,04,06,12.50
2015,05,19,04,07,12.50
2015,05,19,04,08,12.50
2015,05,19,04,09,12.50
2015,05,19,04,10,12.50
2015,05,19,04,11,12.50
2015,05,19,04,12,12.50
2015,05,19,04,13,12.40
2015,05,19,04,14,12.50
2015,05,19,04,15,12.50
2015,05,19,04,16,12.50
2015,05,19,04,17,12.50
2015,05,19,04,18,12.40
2015,05,19,04,19,12.40
2015,05,19,04,20,12.40
2015,05,19,04,21,12.40
2015,05,19,04,22,12.40
2015,05,19,04,23,12.40
2015,05,19,04,24,12.30
2015,05,19,04,25,12.30
2015,05,19,04,26,12.30
2015,05,19,04,27,12.30
2015,05,19,04,28,12.30
2015,05,19,04,29,12.30
2015,05,19,04,30,12.30
2015,05,19,04,31,12.30
2015,05,19,04,32,12.30
2015,05,19,04,33,12.30
2015,05,19,04,34,12.30
2015,05,19,04,35,12.30
2015,05,19,04,36,12.30
2015,05,19,04,37,12.30
2015,05,19,04,38,12.30
2015,05,19,04,39,12.30
2015,05,19,04,40,12.20
2015,05,19,04,41,12.20
2015,05,19,04,42,12.20
2015,05,19,04,43,12.20
2015,05,19,04,44,12.20
2015,05,19,04,45,12.20
2015,05,19,04,46,12.20
2015,05,19,04,47,12.20
2015,05,19,04,48,12.20
2015,05,19,04,49,12.20
2015,05,19,04,50,12.20
2015,05,19,04,51,12.20
2015,05,19,04,52,12.20
2015,05,19,04,53,12.20
2015,05,19,04,54,12.20
2015,05,19,04,55,12.30
2015,05,19,04,56,12.30
2015,05,19,04,57,12.30
2015,05,19,04,58,12.30
2015,05,19,04,59,12.30
2015,05,19,05,00,12.30
2015,05,19,05,01,12.30
2015,05,19,05,02,12.20
2015,05,19,05,03,12.20
2015,05,19,05,04,12.20
2015,05,19,05,05,12.20
2015,05,19,05,06,12.20
2015,05,19,05,07,12.20
2015,05,19,05,08,12.20
2015,05,19,05,09,12.20
2015,05,19,05,10,12.20
2015,05,19,05,11,12.10
2015,05,19,05,12,12.10
2015,05,19,05,13,12.10
2015,05,19,05,14,12.10
2015,05,19,05,15,12.10
2015,05,19,05,16,12.10
2015,05,19,05,17,12.10
2015,05,19,05,18,12.00
2015,05,19,05,19,12.00
2015,05,19,05,20,12.00
2015,05,19,05,21,11.90
2015,05,19,05,22,11.90
2015,05,19,05,23,12.00
2015,05,19,05,24,12.00
2015,05,19,05,25,12.00
2015,05,19,05,26,12.00
2015,05,19,05,27,12.00
2015,05,19,05,28,12.00
2015,05,19,05,29,12.00
2015,05,19,05,30,12.00
2015,05,19,05,31,12.00
2015,05,19,05,32,12.00
2015,05,19,05,33,12.00
2015,05,19,05,34,11.90
2015,05,19,05,35,11.90
2015,05,19,05,36,11.90
2015,05,19,05,37,11.90
2015,05,19,05,38,11.90
2015,05,19,05,39,11.90
2015,05,19,05,40,11.90
2015,05,19,05,41,11.90
2015,05,19,05,42,11.80
2015,05,19,05,43,11.80
2015,05,19,05,44,11.80
2015,05,19,05,45,11.80
2015,05,19,05,46,11.80
2015,05,19,05,47,11.80
2015,05,19,05,48,11.80
2015,05,19,05,49,11.80
2015,05,19,05,50,11.80
2015,05,19,05,51,11.80
2015,05,19,05,52,11.80
2015,05,19,05,53,11.80
2015,05,19,05,54,11.80
2015,05,19,05,55,11.80
2015,05,19,05,56,11.80
2015,05,19,05,57,11.80
2015,05,19,05,58,11.80
2015,05,19,05,59,11.80
2015,05,19,06,00,11.80
2015,05,19,06,01,11.80
2015,05,19,06,02,11.80
2015,05,19,06,03,11.80
2015,05,19,06,04,11.80
2015,05,19,06,05,11.80
2015,05,19,06,06,11.80
2015,05,19,06,07,11.80
2015,05,19,06,08,11.80
2015,05,19,06,09,11.80
2015,05,19,06,10,11.80
2015,05,19,06,11,11.80
2015,05,19,06,12,11.80
2015,05,19,06,13,11.80
2015,05,19,06,14,11.80
2015,05,19,06,15,11.80
2015,05,19,06,16,11.80
2015,05,19,06,17,11.80
2015,05,19,06,18,11.80
2015,05,19,06,19,11.90
2015,05,19,06,20,11.90
2015,05,19,06,21,11.90
2015,05,19,06,22,11.90
2015,05,19,06,23,11.90
2015,05,19,06,24,11.90
2015,05,19,06,25,11.90
2015,05,19,06,26,11.90
2015,05,19,06,27,11.90
2015,05,19,06,28,11.90
2015,05,19,06,29,11.90
2015,05,19,06,30,11.90
2015,05,19,06,31,11.90
2015,05,19,06,32,11.90
2015,05,19,06,33,11.90
2015,05,19,06,34,11.90
2015,05,19,06,35,11.90
2015,05,19,06,36,11.90
2015,05,19,06,37,11.90
2015,05,19,06,38,11.90
2015,05,19,06,39,11.90
2015,05,19,06,40,11.90
2015,05,19,06,41,11.90
2015,05,19,06,42,11.90
2015,05,19,06,43,11.90
2015,05,19,06,44,11.90
2015,05,19,06,45,11.90
2015,05,19,06,46,11.90
2015,05,19,06,47,11.90
2015,05,19,06,48,11.90
2015,05,19,06,49,11.90
2015,05,19,06,50,11.90
2015,05,19,06,51,11.90
2015,05,19,06,52,11.90
2015,05,19,06,53,12.00
2015,05,19,06,54,12.00
2015,05,19,06,55,12.00
2015,05,19,06,56,12.00
2015,05,19,06,57,12.00
2015,05,19,06,58,12.00
2015,05,19,06,59,12.10
2015,05,19,07,00,12.10
2015,05,19,07,01,12.10
2015,05,19,07,02,12.10
2015,05,19,07,03,12.10
2015,05,19,07,04,12.10
2015,05,19,07,05,12.20
2015,05,19,07,06,12.20
2015,05,19,07,07,12.20
2015,05,19,07,08,12.20
2015,05,19,07,09,12.20
2015,05,19,07,10,12.30
2015,05,19,07,11,12.30
2015,05,19,07,12,12.40
2015,05,19,07,13,12.40
2015,05,19,07,14,12.40
2015,05,19,07,15,12.50
2015,05,19,07,16,12.50
2015,05,19,07,17,12.50
2015,05,19,07,18,12.60
2015,05,19,07,19,12.60
2015,05,19,07,20,12.60
2015,05,19,07,21,12.60
2015,05,19,07,22,12.60
2015,05,19,07,23,12.60
2015,05,19,07,24,12.60
2015,05,19,07,25,12.60
2015,05,19,07,26,12.60
2015,05,19,07,27,12.60
2015,05,19,07,28,12.60
2015,05,19,07,29,12.60
2015,05,19,07,30,12.60
2015,05,19,07,31,12.60
2015,05,19,07,32,12.60
2015,05,19,07,33,12.60
2015,05,19,07,34,12.70
2015,05,19,07,35,12.70
2015,05,19,07,36,12.70
2015,05,19,07,37,12.70
2015,05,19,07,38,12.70
2015,05,19,07,39,12.70
2015,05,19,07,40,12.80
2015,05,19,07,41,12.80
2015,05,19,07,42,12.80
2015,05,19,07,43,12.80
2015,05,19,07,44,12.80
2015,05,19,07,45,12.90
2015,05,19,07,46,12.90
2015,05,19,07,47,12.90
2015,05,19,07,48,12.90
2015,05,19,07,49,13.00
2015,05,19,07,50,13.00
2015,05,19,07,51,13.00
2015,05,19,07,52,13.10
2015,05,19,07,53,13.10
2015,05,19,07,54,13.10
2015,05,19,07,55,13.10
2015,05,19,07,56,13.20
2015,05,19,07,57,13.20
2015,05,19,07,58,13.20
2015,05,19,07,59,13.30
2015,05,19,08,00,13.30
2015,05,19,08,01,13.30
2015,05,19,08,02,13.40
2015,05,19,08,03,13.40
2015,05,19,08,04,13.50
2015,05,19,08,05,13.60
2015,05,19,08,06,13.60
2015,05,19,08,07,13.70
2015,05,19,08,08,13.70
2015,05,19,08,09,13.80
2015,05,19,08,10,13.80
2015,05,19,08,11,13.90
2015,05,19,08,12,13.90
2015,05,19,08,13,13.90
2015,05,19,08,14,14.00
2015,05,19,08,15,14.10
2015,05,19,08,16,14.10
2015,05,19,08,17,14.20
2015,05,19,08,18,14.20
2015,05,19,08,19,14.30
2015,05,19,08,20,14.30
2015,05,19,08,21,14.40
2015,05,19,08,22,14.50
2015,05,19,08,23,14.60
2015,05,19,08,24,14.60
2015,05,19,08,25,14.70
2015,05,19,08,26,14.80
2015,05,19,08,27,14.80
2015,05,19,08,28,14.90
2015,05,19,08,29,15.00
2015,05,19,08,30,15.00
2015,05,19,08,31,15.00
2015,05,19,08,32,15.00
2015,05,19,08,33,15.00
2015,05,19,08,34,15.10
2015,05,19,08,35,15.20
2015,05,19,08,36,15.30
2015,05,19,08,37,15.30
2015,05,19,08,38,15.40
2015,05,19,08,39,15.40
2015,05,19,08,40,15.50
2015,05,19,08,41,15.60
2015,05,19,08,42,15.70
2015,05,19,08,43,15.70
2015,05,19,08,44,15.80
2015,05,19,08,45,15.90
2015,05,19,08,46,16.00
2015,05,19,08,47,16.00
2015,05,19,08,48,16.10
2015,05,19,08,49,16.20
2015,05,19,08,50,16.30
2015,05,19,08,51,16.30
2015,05,19,08,52,16.40
2015,05,19,08,53,16.40
2015,05,19,08,54,16.50
2015,05,19,08,55,16.60
2015,05,19,08,56,16.60
2015,05,19,08,57,16.70
2015,05,19,08,58,16.70
2015,05,19,08,59,16.80
2015,05,19,09,00,16.80
2015,05,19,09,01,16.90
2015,05,19,09,02,16.90
2015,05,19,09,03,17.00
2015,05,19,09,04,17.00
2015,05,19,09,05,17.10
2015,05,19,09,06,17.20
2015,05,19,09,07,17.20
2015,05,19,09,08,17.30
2015,05,19,09,09,17.40
2015,05,19,09,10,17.40
2015,05,19,09,11,17.50
2015,05,19,09,12,17.50
2015,05,19,09,13,17.60
2015,05,19,09,14,17.60
2015,05,19,09,15,17.60
2015,05,19,09,16,17.60
2015,05,19,09,17,17.60
2015,05,19,09,18,17.70
2015,05,19,09,19,17.70
2015,05,19,09,20,17.70
2015,05,19,09,21,17.80
2015,05,19,09,22,17.80
2015,05,19,09,23,17.80
2015,05,19,09,24,17.80
2015,05,19,09,25,17.90
2015,05,19,09,26,17.90
2015,05,19,09,27,17.90
2015,05,19,09,28,18.00
2015,05,19,09,29,18.10
2015,05,19,09,30,18.10
2015,05,19,09,31,18.20
2015,05,19,09,32,18.20
2015,05,19,09,33,18.20
2015,05,19,09,34,18.30
2015,05,19,09,35,18.30
2015,05,19,09,36,18.30
2015,05,19,09,37,18.40
2015,05,19,09,38,18.50
2015,05,19,09,39,18.50
2015,05,19,09,40,18.60
2015,05,19,09,41,18.60
2015,05,19,09,42,18.60
2015,05,19,09,43,18.60
2015,05,19,09,44,18.60
2015,05,19,09,45,18.70
2015,05,19,09,46,18.70
2015,05,19,09,47,18.70
2015,05,19,09,48,18.80
2015,05,19,09,49,18.90
2015,05,19,09,50,18.90
2015,05,19,09,51,19.00
2015,05,19,09,52,19.00
2015,05,19,09,53,19.10
2015,05,19,09,54,19.10
2015,05,19,09,55,19.10
2015,05,19,09,56,19.10
2015,05,19,09,57,19.10
2015,05,19,09,58,19.20
2015,05,19,09,59,19.30
2015,05,19,10,00,19.30
2015,05,19,10,01,19.40
2015,05,19,10,02,19.40
2015,05,19,10,03,19.50
2015,05,19,10,04,19.50
2015,05,19,10,05,19.60
2015,05,19,10,06,19.60
2015,05,19,10,07,19.70
2015,05,19,10,08,19.80
2015,05,19,10,09,19.90
2015,05,19,10,10,19.90
2015,05,19,10,11,20.00
2015,05,19,10,12,20.10
2015,05,19,10,13,20.10
2015,05,19,10,14,20.10
2015,05,19,10,15,20.00
2015,05,19,10,16,20.00
2015,05,19,10,17,20.00
2015,05,19,10,18,20.00
2015,05,19,10,19,19.90
2015,05,19,10,20,19.90
2015,05,19,10,21,19.90
2015,05,19,10,22,20.00
2015,05,19,10,23,20.00
2015,05,19,10,24,20.10
2015,05,19,10,25,20.20
2015,05,19,10,26,20.20
2015,05,19,10,27,20.30
2015,05,19,10,28,20.40
2015,05,19,10,29,20.50
2015,05,19,10,30,20.50
2015,05,19,10,31,20.60
2015,05,19,10,32,20.70
2015,05,19,10,33,20.80
2015,05,19,10,34,20.90
2015,05,19,10,35,20.90
2015,05,19,10,36,21.00
2015,05,19,10,37,21.10
2015,05,19,10,38,21.10
2015,05,19,10,39,21.20
2015,05,19,10,40,21.20
2015,05,19,10,41,21.30
2015,05,19,10,42,21.30
2015,05,19,10,43,21.30
2015,05,19,10,44,21.30
2015,05,19,10,45,21.30
2015,05,19,10,46,21.30
2015,05,19,10,47,21.30
2015,05,19,10,48,21.30
2015,05,19,10,49,21.40
2015,05,19,10,50,21.40
2015,05,19,10,51,21.50
2015,05,19,10,52,21.50
2015,05,19,10,53,21.50
2015,05,19,10,54,21.60
2015,05,19,10,55,21.60
2015,05,19,10,56,21.60
2015,05,19,10,57,21.70
2015,05,19,10,58,21.70
2015,05,19,10,59,21.70
2015,05,19,11,00,21.70
2015,05,19,11,01,21.70
2015,05,19,11,02,21.70
2015,05,19,11,03,21.80
2015,05,19,11,04,21.80
2015,05,19,11,05,21.80
2015,05,19,11,06,21.80
2015,05,19,11,07,21.80
2015,05,19,11,08,21.70
2015,05,19,11,09,21.70
2015,05,19,11,10,21.70
2015,05,19,11,11,21.70
2015,05,19,11,12,21.70
2015,05,19,11,13,21.80
2015,05,19,11,14,21.80
2015,05,19,11,15,21.80
2015,05,19,11,16,21.80
2015,05,19,11,17,21.80
2015,05,19,11,18,21.80
2015,05,19,11,19,21.80
2015,05,19,11,20,21.90
2015,05,19,11,21,22.00
2015,05,19,11,22,22.00
2015,05,19,11,23,22.10
2015,05,19,11,24,22.10
2015,05,19,11,25,22.10
2015,05,19,11,26,22.20
2015,05,19,11,27,22.20
2015,05,19,11,28,22.20
2015,05,19,11,29,22.30
2015,05,19,11,30,22.30
2015,05,19,11,31,22.30
2015,05,19,11,32,22.30
2015,05,19,11,33,22.30
2015,05,19,11,34,22.30
2015,05,19,11,35,22.30
2015,05,19,11,36,22.30
2015,05,19,11,37,22.40
2015,05,19,11,38,22.40
2015,05,19,11,39,22.40
2015,05,19,11,40,22.50
2015,05,19,11,41,22.50
2015,05,19,11,42,22.60
2015,05,19,11,43,22.70
2015,05,19,11,44,22.70
2015,05,19,11,45,22.80
2015,05,19,11,46,22.90
2015,05,19,11,47,22.90
2015,05,19,11,48,22.90
2015,05,19,11,49,22.90
2015,05,19,11,50,22.90
2015,05,19,11,51,22.90
2015,05,19,11,52,22.90
2015,05,19,11,53,22.90
2015,05,19,11,54,22.90
2015,05,19,11,55,22.90
2015,05,19,11,56,23.00
2015,05,19,11,57,23.00
2015,05,19,11,58,23.10
2015,05,19,11,59,23.10
2015,05,19,12,00,23.20
2015,05,19,12,01,23.20
2015,05,19,12,02,23.20
2015,05,19,12,03,23.30
2015,05,19,12,04,23.30
2015,05,19,12,05,23.30
2015,05,19,12,06,23.30
2015,05,19,12,07,23.20
2015,05,19,12,08,23.00
2015,05,19,12,09,22.90
2015,05,19,12,10,22.80
2015,05,19,12,11,22.80
2015,05,19,12,12,22.80
2015,05,19,12,13,22.80
2015,05,19,12,14,22.80
2015,05,19,12,15,22.80
2015,05,19,12,16,22.80
2015,05,19,12,17,22.80
2015,05,19,12,18,22.80
2015,05,19,12,19,22.90
2015,05,19,12,20,22.90
2015,05,19,12,21,23.00
2015,05,19,12,22,23.00
2015,05,19,12,23,23.10
2015,05,19,12,24,23.20
2015,05,19,12,25,23.30
2015,05,19,12,26,23.30
2015,05,19,12,27,23.40
2015,05,19,12,28,23.40
2015,05,19,12,29,23.50
2015,05,19,12,30,23.50
2015,05,19,12,31,23.40
2015,05,19,12,32,23.40
2015,05,19,12,33,23.40
2015,05,19,12,34,23.40
2015,05,19,12,35,23.40
2015,05,19,12,36,23.40
2015,05,19,12,37,23.40
2015,05,19,12,38,23.40
2015,05,19,12,39,23.40
2015,05,19,12,40,23.40
2015,05,19,12,41,23.50
2015,05,19,12,42,23.50
2015,05,19,12,43,23.60
2015,05,19,12,44,23.60
2015,05,19,12,45,23.70
2015,05,19,12,46,23.70
2015,05,19,12,47,23.80
2015,05,19,12,48,23.80
2015,05,19,12,49,23.80
2015,05,19,12,50,23.80
2015,05,19,12,51,23.80
2015,05,19,12,52,23.90
2015,05,19,12,53,23.90
2015,05,19,12,54,23.90
2015,05,19,12,55,24.00
2015,05,19,12,56,24.00
2015,05,19,12,57,24.00
2015,05,19,12,58,24.00
2015,05,19,12,59,24.00
2015,05,19,13,00,24.00
2015,05,19,13,01,24.00
2015,05,19,13,02,24.00
2015,05,19,13,03,24.10
2015,05,19,13,04,24.10
2015,05,19,13,05,24.00
2015,05,19,13,06,24.00
2015,05,19,13,07,23.90
2015,05,19,13,08,23.80
2015,05,19,13,09,23.80
2015,05,19,13,10,23.80
2015,05,19,13,11,23.90
2015,05,19,13,12,23.90
2015,05,19,13,13,23.90
2015,05,19,13,14,24.00
2015,05,19,13,15,24.10
2015,05,19,13,16,24.10
2015,05,19,13,17,24.10
2015,05,19,13,18,24.10
2015,05,19,13,19,24.00
2015,05,19,13,20,23.90
2015,05,19,13,21,23.90
2015,05,19,13,22,23.80
2015,05,19,13,23,23.80
2015,05,19,13,24,23.80
2015,05,19,13,25,23.80
2015,05,19,13,26,23.80
2015,05,19,13,27,23.80
2015,05,19,13,28,23.80
2015,05,19,13,29,23.80
2015,05,19,13,30,23.80
2015,05,19,13,31,23.60
2015,05,19,13,32,23.50
2015,05,19,13,33,23.50
2015,05,19,13,34,23.40
2015,05,19,13,35,23.40
2015,05,19,13,36,23.30
2015,05,19,13,37,23.30
2015,05,19,13,38,23.20
2015,05,19,13,39,23.20
2015,05,19,13,40,23.20
2015,05,19,13,41,23.20
2015,05,19,13,42,23.20
2015,05,19,13,43,23.20
2015,05,19,13,44,23.20
2015,05,19,13,45,23.30
2015,05,19,13,46,23.30
2015,05,19,13,47,23.30
2015,05,19,13,48,23.30
2015,05,19,13,49,23.30
2015,05,19,13,50,23.30
2015,05,19,13,51,23.30
2015,05,19,13,52,23.30
2015,05,19,13,53,23.40
2015,05,19,13,54,23.50
2015,05,19,13,55,23.60
2015,05,19,13,56,23.70
2015,05,19,13,57,23.80
2015,05,19,13,58,23.90
2015,05,19,13,59,23.90
2015,05,19,14,00,24.00
2015,05,19,14,01,24.00
2015,05,19,14,02,24.00
2015,05,19,14,03,24.10
2015,05,19,14,04,24.10
2015,05,19,14,05,24.10
2015,05,19,14,06,24.20
2015,05,19,14,07,24.20
2015,05,19,14,08,24.30
2015,05,19,14,09,24.20
2015,05,19,14,10,24.20
2015,05,19,14,11,24.20
2015,05,19,14,12,24.30
2015,05,19,14,13,24.30
2015,05,19,14,14,24.30
2015,05,19,14,15,24.40
2015,05,19,14,16,24.50
2015,05,19,14,17,24.50
2015,05,19,14,18,24.60
2015,05,19,14,19,24.60
2015,05,19,14,20,24.70
2015,05,19,14,21,24.70
2015,05,19,14,22,24.70
2015,05,19,14,23,24.70
2015,05,19,14,24,24.80
2015,05,19,14,25,24.80
2015,05,19,14,26,24.90
2015,05,19,14,27,24.90
2015,05,19,14,28,24.90
2015,05,19,14,29,24.90
2015,05,19,14,30,24.90
2015,05,19,14,31,24.90
2015,05,19,14,32,24.90
2015,05,19,14,33,24.80
2015,05,19,14,34,24.80
2015,05,19,14,35,24.90
2015,05,19,14,36,24.90
2015,05,19,14,37,24.90
2015,05,19,14,38,25.00
2015,05,19,14,39,25.10
2015,05,19,14,40,25.20
2015,05,19,14,41,25.20
2015,05,19,14,42,25.20
2015,05,19,14,43,25.20
2015,05,19,14,44,25.20
2015,05,19,14,45,25.20
2015,05,19,14,46,25.20
2015,05,19,14,47,25.30
2015,05,19,14,48,25.30
2015,05,19,14,49,25.30
2015,05,19,14,50,25.30
2015,05,19,14,51,25.30
2015,05,19,14,52,25.30
2015,05,19,14,53,25.20
2015,05,19,14,54,25.20
2015,05,19,14,55,25.20
2015,05,19,14,56,25.20
2015,05,19,14,57,25.20
2015,05,19,14,58,25.10
2015,05,19,14,59,25.10
2015,05,19,15,00,25.10
2015,05,19,15,01,25.10
2015,05,19,15,02,25.10
2015,05,19,15,03,25.10
2015,05,19,15,04,25.10
2015,05,19,15,05,25.10
2015,05,19,15,06,25.20
2015,05,19,15,07,25.20
2015,05,19,15,08,25.20
2015,05,19,15,09,25.20
2015,05,19,15,10,25.10
2015,05,19,15,11,25.10
2015,05,19,15,12,25.10
2015,05,19,15,13,25.10
2015,05,19,15,14,25.10
2015,05,19,15,15,25.00
2015,05,19,15,16,25.00
2015,05,19,15,17,24.90
2015,05,19,15,18,24.90
2015,05,19,15,19,24.80
2015,05,19,15,20,24.80
2015,05,19,15,21,24.90
2015,05,19,15,22,24.90
2015,05,19,15,23,25.00
2015,05,19,15,24,25.00
2015,05,19,15,25,25.00
2015,05,19,15,26,25.00
2015,05,19,15,27,25.00
2015,05,19,15,28,25.00
2015,05,19,15,29,25.00
2015,05,19,15,30,24.90
2015,05,19,15,31,24.90
2015,05,19,15,32,24.90
2015,05,19,15,33,24.90
2015,05,19,15,34,25.00
2015,05,19,15,35,25.00
2015,05,19,15,36,24.90
2015,05,19,15,37,25.00
2015,05,19,15,38,24.90
2015,05,19,15,39,25.00
2015,05,19,15,40,25.00
2015,05,19,15,41,25.00
2015,05,19,15,42,25.10
2015,05,19,15,43,25.10
2015,05,19,15,44,25.10
2015,05,19,15,45,25.20
2015,05,19,15,46,25.20
2015,05,19,15,47,25.30
2015,05,19,15,48,25.30
2015,05,19,15,49,25.40
2015,05,19,15,50,25.40
2015,05,19,15,51,25.50
2015,05,19,15,52,25.50
2015,05,19,15,53,25.60
2015,05,19,15,54,25.60
2015,05,19,15,55,25.70
2015,05,19,15,56,25.70
2015,05,19,15,57,25.70
2015,05,19,15,58,25.70
2015,05,19,15,59,25.70
2015,05,19,16,00,25.70
2015,05,19,16,01,25.70
2015,05,19,16,02,25.70
2015,05,19,16,03,25.70
2015,05,19,16,04,25.70
2015,05,19,16,05,25.70
2015,05,19,16,06,25.80
2015,05,19,16,07,25.80
2015,05,19,16,08,25.80
2015,05,19,16,09,25.80
2015,05,19,16,10,25.80
2015,05,19,16,11,25.70
2015,05,19,16,12,25.70
2015,05,19,16,13,25.70
2015,05,19,16,14,25.70
2015,05,19,16,15,25.80
2015,05,19,16,16,25.80
2015,05,19,16,17,25.80
2015,05,19,16,18,25.80
2015,05,19,16,19,25.90
2015,05,19,16,20,25.90
2015,05,19,16,21,25.90
2015,05,19,16,22,26.00
2015,05,19,16,23,26.00
2015,05,19,16,24,26.00
2015,05,19,16,25,26.00
2015,05,19,16,26,26.00
2015,05,19,16,27,26.00
2015,05,19,16,28,26.10
2015,05,19,16,29,26.10
2015,05,19,16,30,26.00
2015,05,19,16,31,25.90
2015,05,19,16,32,25.70
2015,05,19,16,33,25.60
2015,05,19,16,34,25.50
2015,05,19,16,35,25.50
2015,05,19,16,36,25.40
2015,05,19,16,37,25.40
2015,05,19,16,38,25.40
2015,05,19,16,39,25.40
2015,05,19,16,40,25.30
2015,05,19,16,41,25.30
2015,05,19,16,42,25.20
2015,05,19,16,43,25.10
2015,05,19,16,44,25.00
2015,05,19,16,45,25.00
2015,05,19,16,46,24.90
2015,05,19,16,47,24.80
2015,05,19,16,48,24.80
2015,05,19,16,49,24.70
2015,05,19,16,50,24.60
2015,05,19,16,51,24.50
2015,05,19,16,52,24.40
2015,05,19,16,53,24.30
2015,05,19,16,54,24.30
2015,05,19,16,55,24.20
2015,05,19,16,56,24.10
2015,05,19,16,57,24.00
2015,05,19,16,58,23.80
2015,05,19,16,59,23.70
2015,05,19,17,00,23.60
2015,05,19,17,01,23.50
2015,05,19,17,02,23.40
2015,05,19,17,03,23.30
2015,05,19,17,04,23.30
2015,05,19,17,05,23.20
2015,05,19,17,06,23.10
2015,05,19,17,07,23.00
2015,05,19,17,08,22.90
2015,05,19,17,09,22.80
2015,05,19,17,10,22.70
2015,05,19,17,11,22.60
2015,05,19,17,12,22.50
2015,05,19,17,13,22.40
2015,05,19,17,14,22.40
2015,05,19,17,15,22.30
2015,05,19,17,16,22.20
2015,05,19,17,17,22.10
2015,05,19,17,18,22.10
2015,05,19,17,19,22.00